GW4836 Weather Reports


time (UTC)temp
C
wind
direction
speed
KPH
gust
KPH
rain 1hr
cm
rain 24hr
cm
rain mn
cm
humidity
%
barometer
mb
20260906231514 17 329 8.0 12.9 0.00 0.18 0.03 73 1016.0
20260906230013 17 323 11.3 19.3 0.00 0.18 0.03 73 1016.3
20260906224513 17 23 6.4 14.5 0.00 0.18 0.03 75 1016.3
20260906223012 17 49 6.4 14.5 0.00 0.18 0.03 74 1016.5
20260906221510 17 44 8.0 19.3 0.00 0.18 0.03 75 1016.5
20260906220016 17 29 8.0 16.1 0.00 0.18 0.03 75 1016.3
20260906214510 16 53 9.7 19.3 0.00 0.18 0.03 75 1016.4
20260906213010 17 51 12.9 19.3 0.00 0.18 0.03 74 1016.4
20260906211508 17 19 9.7 19.3 0.00 0.18 0.03 74 1016.4
20260906210008 17 59 12.9 22.5 0.00 0.18 0.03 73 1016.4
20260906204507 17 22 12.9 22.5 0.00 0.18 0.03 73 1016.4
20260906203006 17 23 12.9 25.7 0.00 0.18 0.03 73 1016.4
20260906201505 17 50 16.1 24.1 0.00 0.18 0.03 73 1016.4
20260906200006 17 32 16.1 25.7 0.00 0.18 0.03 73 1016.5
20260906194504 17 5 16.1 24.1 0.00 0.18 0.03 72 1016.6
20260906193004 17 38 16.1 29.0 0.00 0.18 0.03 71 1016.5
20260906191503 17 26 19.3 29.0 0.00 0.18 0.03 70 1016.5
20260906190002 17 20 19.3 33.8 0.00 0.18 0.03 68 1016.4
20260906184625 17 20 24.1 33.8 0.00 0.18 0.03 69 1016.5
20260906183058 16 45 22.5 35.4 0.00 0.18 0.03 69 1016.4
20260906181554 16 35 22.5 32.2 0.00 0.18 0.03 74 1016.7
20260906180050 15 14 12.9 25.7 0.00 0.18 0.03 79 1017.1
20260906174548 13 57 11.3 19.3 0.00 0.18 0.03 81 1017.2
20260906173044 14 15 8.0 20.9 0.00 0.18 0.03 81 1018.2
20260906171546 13 331 14.5 22.5 0.00 0.18 0.03 80 1018.2
20260906170042 13 360 12.9 20.9 0.00 0.18 0.03 81 1018.1
20260906164542 13 340 12.9 19.3 0.00 0.18 0.03 83 1018.2
20260906163041 14 36 11.3 17.7 0.03 0.18 0.03 85 1018.3
20260906161540 14 49 6.4 14.5 0.03 0.18 0.03 88 1018.0
20260906160039 13 59 3.2 8.0 0.03 0.18 0.03 88 1018.3
20260906154538 13 36 1.6 9.7 0.03 0.18 0.03 87 1018.6
20260906153038 12 317 6.4 14.5 0.00 0.15 0.00 85 1018.9
20260906151547 12 294 14.5 24.1 0.00 0.15 0.00 85 1018.9
20260906150037 12 323 12.9 25.7 0.00 0.15 0.00 87 1018.7
20260906144536 13 292 20.9 33.8 0.00 0.15 0.00 83 1019.3
20260906143035 14 46 8.0 19.3 0.00 0.15 0.00 86 1018.7
20260906141532 13 42 12.9 22.5 0.00 0.15 0.00 86 1018.4
20260906140031 13 355 9.7 19.3 0.00 0.25 0.00 86 1018.8
20260906134530 13 40 17.7 27.4 0.00 0.25 0.00 86 1018.3
20260906133029 13 42 17.7 25.7 0.00 0.25 0.00 87 1018.2
20260906131529 13 36 11.3 24.1 0.00 0.25 0.00 87 1018.4
20260906130027 13 30 16.1 25.7 0.00 0.25 0.00 88 1018.4
20260906124535 13 57 17.7 25.7 0.00 0.25 0.00 88 1018.6
20260906123034 13 63 16.1 29.0 0.00 0.25 0.00 88 1018.4
20260906121524 12 27 17.7 29.0 0.00 0.25 0.00 88 1018.5
20260906120023 12 14 16.1 25.7 0.00 0.25 0.00 88 1018.7
20260906114522 12 31 16.1 24.1 0.00 0.25 0.00 88 1018.8
20260906113021 12 43 14.5 29.0 0.00 0.25 0.00 87 1018.6
20260906111519 12 30 17.7 27.4 0.00 0.25 0.00 86 1018.5
20260906110022 13 25 19.3 33.8 0.00 0.25 0.00 86 1018.5
20260906104520 12 37 19.3 30.6 0.00 0.25 0.00 86 1018.6
20260906103038 12 30 19.3 30.6 0.00 0.25 0.00 86 1018.7
20260906101516 12 34 17.7 30.6 0.00 0.25 0.00 86 1019.0
20260906100024 12 28 19.3 33.8 0.00 0.25 0.00 85 1018.8
20260906094513 12 33 20.9 32.2 0.00 0.25 0.00 87 1018.8
20260906093012 12 327 24.1 40.2 0.00 0.25 0.00 86 1018.9
20260906091509 13 331 25.7 35.4 0.00 0.25 0.00 85 1019.0
20260906090008 13 315 20.9 27.4 0.00 0.25 0.00 86 1019.7
20260906084507 12 336 20.9 35.4 0.00 0.25 0.00 86 1019.3
20260906083005 13 33 25.7 35.4 0.00 0.25 0.00 85 1019.2
20260906081503 13 338 24.1 37.0 0.00 0.25 0.00 85 1019.3
20260906074558 13 22 22.5 37.0 0.00 0.25 0.00 84 1019.4
20260906073058 13 30 24.1 38.6 0.00 0.25 0.00 83 1019.4
20260906071553 13 24 24.1 33.8 0.00 0.25 0.00 83 1019.4
20260906070051 13 351 22.5 35.4 0.00 0.25 0.00 82 1019.9
20260906064550 13 11 20.9 35.4 0.00 0.25 0.00 83 1020.0
20260906063048 13 30 20.9 37.0 0.00 0.25 0.00 83 1020.0
20260906061545 13 37 24.1 38.6 0.00 0.25 0.00 83 1020.1
20260906060043 13 19 25.7 37.0 0.00 0.25 0.25 84 1020.1
20260906054542 13 21 24.1 35.4 0.03 0.25 0.25 85 1020.2
20260906053042 13 35 25.7 37.0 0.03 0.25 0.25 85 1019.9
20260906051541 12 23 22.5 32.2 0.03 0.25 0.25 85 1020.1
20260906050045 13 13 24.1 35.4 0.03 0.25 0.25 82 1019.8
20260906044543 13 327 24.1 43.5 0.00 0.23 0.23 81 1020.8
20260906043041 13 347 29.0 45.1 0.03 0.23 0.23 84 1019.6
20260906041540 13 13 27.4 45.1 0.13 0.23 0.23 85 1019.2
20260906040039 12 30 27.4 41.8 0.13 0.23 0.23 87 1019.4
20260906034539 13 9 30.6 40.2 0.13 0.23 0.23 85 1019.8
20260906033039 14 11 25.7 38.6 0.08 0.18 0.18 77 1020.0
20260906031538 15 35 29.0 43.5 0.00 0.10 0.10 69 1019.9
20260906030036 15 24 27.4 43.5 0.00 0.10 0.10 68 1018.7
20260906024539 15 38 30.6 43.5 0.00 0.10 0.10 67 1018.5
20260906023042 15 23 30.6 43.5 0.00 0.10 0.10 66 1018.3
20260906021541 15 29 25.7 43.5 0.00 0.10 0.10 66 1018.3
20260906020032 16 27 29.0 41.8 0.00 0.10 0.10 65 1018.4
20260906014537 16 30 22.5 33.8 0.00 0.10 0.10 63 1018.4
20260906013040 17 28 24.1 33.8 0.00 0.10 0.10 61 1018.3
20260906011533 17 40 17.7 27.4 0.00 0.10 0.10 59 1018.5
20260906010029 18 29 19.3 27.4 0.00 0.10 0.10 57 1018.4
20260906004528 18 16 19.3 33.8 0.00 0.10 0.10 54 1018.6
20260906003027 20 31 20.9 32.2 0.00 0.10 0.10 53 1018.6
20260906001525 20 31 22.5 32.2 0.00 0.10 0.10 52 1018.5
20260906000025 21 35 22.5 35.4 0.00 0.10 0.10 51 1018.7
20260905234525 21 27 20.9 30.6 0.00 0.10 0.10 49 1018.9
20260905233024 21 30 11.3 24.1 0.00 0.10 0.10 47 1018.7